Weather in Suordakh

Russia / Sakha (Yakutia) Republic     66°40′36″N   131°46′22″E
temp.,
°C
wind,
m/s
gust,
m/s
humid.,
%
clouds,
%
prec.,
mm/h
press.,
hPa
HPBL,
m
19 april, mon
mon1901:00−18ssw32775 0.0 101624
04:00−23ssw22893 0.0 101930
07:00−21ssw22873 0.0 102056
10:00−12s1172100 0.0 1019243
13:00−8ese0065100 0.0 1017534
16:00−7ne2263100 0.0 1017863
19:00−8ne1280100 0.0 1018107
22:00−12nw1193100 0.0 101910
20 april, tue
tue2001:00−15nw119676 0.0 102011
04:00−14nw2195100 0.0 101921
07:00−12nw2394100 0.1 1017114
10:00−10nnw2590100 0.8 1015438
13:00−8n2589100 0.9 1013689
16:00−8n3589100 1.9 1012659
19:00−8nnw1392100 0.6 1012407
22:00−10nw1197100 1.2 101310
21 april, wed
wed2101:00−14w119863 0.2 10159
04:00−21wsw2110085 0.3 10179
07:00−17sw119893 0.0 101743
10:00−10s1285100 0.1 1016330
13:00−6s2273100 0.0 1016735
16:00−4s1266100 0.0 10161003
19:00−5sse128091 0.0 101797
22:00−14w1195100 0.1 101910
22 april, thu
thu2201:00−16w1198100 0.0 10219
04:00−18w119996 0.0 10229
07:00−13wnw0194100 0.2 102272
10:00−8n0186100 0.4 1022435
13:00−6n0079100 0.3 1021709
16:00−5wnw1276100 0.6 1020804
19:00−6wnw13725 0.2 1020267
22:00−17wsw22935 0.2 102311
23 april, fri
fri2301:00−21sw22925 0.0 102415
04:00−23sw22935 0.0 102418
07:00−19sw22855 0.0 102457
10:00−11ssw227186 0.0 1023370
13:00−7s236696 0.0 1022668
16:00−5ssw346499 0.0 1021811
19:00−5sse247851 0.0 1021175
22:00−15sw21955 0.0 10239